Hourly Data Report for October 23, 2013

All times are specified in Local Standard Time (LST). Add 1 hour to adjust for Daylight Saving Time where and when it is observed.

KUGAARUK CLIMATE
NUNAVUT

68°32'15.060" N
89°47'47.020" W
15.80 m
2303094
71407
NBB

Download Data

Hourly Data (October 2013)
Hourly Data Report for October 23, 2013
Temp Definition
°C
Dew Point Temp Definition
°C
Rel Hum Definition
%
Wind Dir Definition
10's deg

Wind Spd Definition
km/h
Visibility Definition
km
Stn Press Definition
kPa
Hmdx Definition


Wind Chill Definition


Weather Definition


TIME
00:00 -8.7 -9.7 92 5 7   101.67   -13 LegendNANA
01:00 -8.9 -9.9 92 5 7   101.66   -13 LegendNANA
02:00 -10.0 -11.3 90 5 7   101.65   -14 LegendNANA
03:00 -9.4 -10.4 92 5 7   101.64   -13 LegendNANA
04:00 -8.1 -9.2 92 5 9   101.62   -13 LegendNANA
05:00 -8.0 -9.2 91 5 6   101.61   -11 LegendNANA
06:00 -7.7 -9.0 90 4 6   101.59   -11 LegendNANA
07:00 -8.1 -9.4 90 10 4   101.61   -10 LegendNANA
08:00 -8.0 -9.5 89 10 9   101.59   -13 LegendNANA
09:00 -8.1 -9.7 88 4 4   101.58   -10 LegendNANA
10:00
11:00 -7.9 -9.9 86 6 4   101.57   -10 LegendNANA
12:00 -7.6 -9.7 85 4 4   101.56   -10 LegendNANA
13:00 -7.6 -9.7 85 13 2   101.56   -9 LegendNANA
14:00 -7.9 -9.7 87   0   101.56     LegendNANA
15:00 -8.5 -10.0 89   0   101.56     LegendNANA
16:00 -8.9 -10.2 90 5 4   101.55   -11 LegendNANA
17:00 -8.3 -9.5 91   0   101.54     LegendNANA
18:00 -8.3 -9.4 92 7 2   101.48   -9 LegendNANA
19:00 -8.9 -10.0 92 5 6   101.45   -12 LegendNANA
20:00 -9.3 -10.5 91 3 6   101.42   -13 LegendNANA
21:00 -8.9 -10.2 90 5 6   101.39   -12 LegendNANA
22:00 -9.0 -10.4 90 5 4   101.36   -11 LegendNANA
23:00 -8.5 -9.8 90 3 4   101.31   -11 LegendNANA

Notes on Data Quality.

Legend

  • E = Estimated
  • M = Missing
  • NA = Not Available
  • ‡ = Partner data that is not subject to review by the National Climate Archives
Date modified: